Create Custom Reports and Graphics: Custom Report

OV-Red Dog 6200'

Current Conditions

2/24/24 1:15 AM (-08:00)
Updated Every 15 Minutes
Temp 26.2 °F   3.0
RH 95 %   1
Dew Pt 25.1 °F   3.1
Wet Bulb 25.7 °F   3.0
Wind Dir S | 185 °
Wind Spd 0.6 mph   0.1
Wind Gust 1.9 mph   0.3
WindChill 26.2 °F   3.0
Daily Min Temp 25.8 °F   3.3
Daily Max Temp 26.8 °F   2.9
Latest Rain 0.00 In
Daily Rain 0.00 In
New Snow 51.6 in
SnowDepth 135.9 in

Last 24 Hours

OV-Red Dog 6200'

Hourly Data | America/Los_Angeles
as of 2/24/24 1:19 AM PST
Date & Time Temp (°F) RH (%) Dew Pt (°F) Wet Bulb (°F) Wind Dir (°) Wind Spd (mph) Wind Gust (mph) Latest Rain (In) New Snow (in) SnowDepth (in) Daily Min Temp (°F) Daily Max Temp (°F) Daily Rain (In)
2/24/24 - 0100 26.6 94 25.1 26.0 NNW | 333 0.7 2.4 0.00 51.6 135.5 25.8 26.8 0.00
2/24/24 - 0000 26.5 94 25.0 25.8 W | 281 0.7 3.0 0.00 51.5 134.1 18.2 46.6 0.00
2/23/24 - 2300 27.0 95 25.7 26.4 NW | 304 0.4 2.5 0.00 51.4 140.4 18.2 46.6 0.00
2/23/24 - 2200 28.0 97 27.3 27.6 SW | 235 0.4 1.8 0.00 51.5 152.3 18.2 46.6 0.00
2/23/24 - 2100 29.2 96 28.2 28.8 WSW | 253 0.3 1.7 0.00 51.4 157.6 18.2 46.6 0.00
2/23/24 - 2000 30.5 96 29.6 30.1 WSW | 255 0.7 1.9 0.00 51.4 177.2 18.2 46.6 0.00
2/23/24 - 1900 32.8 91 30.5 31.8 W | 270 1.3 5.4 0.00 51.3 190.6 18.2 46.6 0.00
2/23/24 - 1800 36.6 76 29.8 33.9 W | 276 2.0 5.4 0.00 51.3 199.8 18.2 46.6 0.00
2/23/24 - 1700 37.1 86 33.2 35.5 W | 264 1.8 3.4 0.00 51.4 205.5 18.2 46.6 0.00
2/23/24 - 1600 42.2 73 34.3 38.9 WSW | 257 1.6 2.7 0.00 51.4 206.2 18.2 46.6 0.00
2/23/24 - 1500 42.8 69 33.4 38.9 WSW | 255 1.7 4.5 0.00 51.3 206.9 18.2 46.6 0.00
2/23/24 - 1400 43.4 65 32.2 38.7 WSW | 247 1.5 5.2 0.00 51.4 207.5 18.2 46.6 0.00
2/23/24 - 1300 44.9 53 28.9 38.4 WSW | 238 1.9 6.0 0.00 51.6 203.8 18.2 45.0 0.00
2/23/24 - 1200 43.0 58 29.4 37.5 S | 183 2.1 6.4 0.00 51.1 202.9 18.2 43.2 0.00
2/23/24 - 1100 40.7 61 28.2 35.8 WNW | 283 1.6 5.1 0.00 51.3 203.0 18.2 41.0 0.00
2/23/24 - 1000 32.2 76 25.6 29.8 WSW | 258 0.9 2.4 0.00 51.2 209.7 18.2 32.2 0.00
2/23/24 - 0900 28.3 82 23.7 26.7 WSW | 243 0.4 2.3 0.00 51.3 170.4 18.2 30.3 0.00
2/23/24 - 0800 22.0 91 19.8 21.2 NNW | 345 0.9 3.0 0.00 51.2 178.1 18.2 23.8 0.00
2/23/24 - 0700 18.6 95 17.5 18.2 NNE | 22 0.6 2.3 0.00 51.3 181.2 18.2 23.8 0.00
2/23/24 - 0600 19.0 93 17.4 18.5 S | 169 0.4 1.9 0.00 51.2 178.4 18.7 23.8 0.00
2/23/24 - 0500 19.7 94 18.3 19.2 NNE | 25 0.6 2.1 0.00 51.0 176.7 19.5 23.8 0.00
2/23/24 - 0400 19.8 96 18.8 19.4 N | 350 0.5 2.3 0.00 51.0 174.5 19.8 23.8 0.00
2/23/24 - 0300 20.6 94 19.1 20.1 SSE | 157 0.3 1.7 0.00 50.9 170.5 20.6 23.8 0.00
2/23/24 - 0200 22.0 94 20.5 21.4 NNW | 346 0.2 1.7 0.00 51.0 170.5 21.4 23.8 0.00
2/23/24 - 0100 22.6 95 21.4 22.1 SW | 214 0.2 1.7 0.00 50.9 159.5 22.5 23.8 0.00
Max 44.9 97 34.3 38.9 - 2.1 6.4 0.00 51.6 209.7 25.8 46.6 0.00
Avg 30.2 85 25.7 28.4 - 1.0 3.1 0.00 - - - - -
Min 18.6 53 17.4 18.2 - 0.2 1.7 0.00 50.9 134.1 18.2 23.8 0.00
Total - - - - - - - 0.00 - - - - -

Last 30 Days

OV-Red Dog 6200'

Daily Data | America/Los_Angeles
as of 2/24/24 1:19 AM PST
Date Daily Max Temp (°F) Time of Max Temp Daily Min Temp (°F) Time of Min Temp Daily Rain (In) New Snow (in) SnowDepth (in) Wind Spd (mph) Daily Max Wind (mph) Time of Max Wind Max Wind Dir (°) Max RH (%) Min RH (%) Wet Bulb (°F) WetB Hrs <28F (hrs) MinBV Day (V)
2/23/24 46.6 1335 18.2 0656 0.00 51.5 134.1 1.0 6.4 1123 SE | 140 98 48 - - 13.0
2/22/24 43.6 1411 16.5 0642 0.00 50.8 154.8 1.2 10.2 1332 NNW | 339 97 40 26.1 - 13.0
2/21/24 39.6 1545 21.9 2343 0.00 50.4 169.1 1.6 18.0 1451 NNW | 348 99 62 29.8 15.2 13.0
2/20/24 40.0 1421 30.7 2014 0.00 50.2 181.4 5.4 24.0 0748 NNE | 18 99 64 31.7 0.0 13.0
2/19/24 37.5 1128 32.2 0935 0.00 51.4 188.0 5.9 33.4 0552 ENE | 74 99 70 33.2 0.0 12.9
2/18/24 45.1 1443 32.7 0106 0.00 46.9 198.4 7.6 32.8 1847 NNE | 27 99 44 34.9 0.0 13.0
2/17/24 43.7 1118 29.3 0655 0.00 12.4 107.0 4.0 23.0 2241 NNE | 25 99 37 33.0 0.0 13.0
2/16/24 43.0 1253 25.7 0328 0.00 - 121.5 1.2 5.6 1748 NW | 310 100 65 32.0 23.5 13.0
2/15/24 39.7 1256 26.9 2012 0.00 - 140.7 5.5 24.6 0102 NNE | 19 98 68 30.1 15.6 13.0
2/14/24 36.0 1338 28.9 0001 0.00 - - 8.3 30.6 1148 NNE | 16 99 54 31.1 0.2 13.0
2/13/24 43.0 1137 20.4 0553 0.00 - 90.3 4.4 19.4 1449 N | 0 91 35 28.3 - 13.0
2/12/24 50.7 1310 16.9 0535 0.00 - 130.8 1.3 10.3 1632 NNW | 337 94 26 - - 13.0
2/11/24 46.5 1510 11.4 0537 0.00 0.7 121.2 0.9 6.8 1621 WNW | 290 97 41 24.4 - 13.0
2/10/24 40.8 1354 11.7 0515 0.00 31.2 156.3 1.4 12.1 1003 SSW | 203 94 41 - - 13.0
2/9/24 33.3 1412 13.4 0206 0.00 42.6 164.7 3.0 17.6 1925 SSW | 196 95 56 22.7 - 13.0
2/8/24 32.9 1255 16.9 2347 0.00 39.4 187.3 2.6 12.1 1445 NW | 322 96 63 24.0 - 13.0
2/7/24 31.1 1434 22.0 0133 0.00 39.4 182.9 4.0 23.5 0946 NNE | 20 97 77 26.2 - 13.0
2/6/24 41.0 1341 24.1 0001 0.00 40.1 171.4 1.5 8.0 1411 NW | 317 99 65 - 17.3 13.0
2/5/24 34.9 1249 29.4 2207 0.00 39.4 181.9 4.7 25.2 0046 NNE | 26 98 73 31.0 0.0 13.0
2/4/24 39.9 1722 26.7 0259 0.00 40.0 192.4 4.9 33.3 2010 N | 11 100 65 - 23.3 13.0
2/3/24 32.5 1510 17.2 0749 0.00 43.6 109.6 3.2 16.8 0126 NNW | 347 95 63 23.8 - 13.0
2/2/24 32.6 1320 23.8 2105 0.00 37.0 161.5 3.6 23.7 2309 NNE | 22 97 75 27.2 - 13.0
2/1/24 37.2 0210 28.5 2306 0.00 47.1 201.3 3.6 16.6 0001 N | 0 99 70 - 2.8 13.0
1/31/24 48.3 0040 35.1 1741 0.00 48.0 195.6 7.2 24.6 0645 NW | 324 96 36 36.8 0.0 13.0
1/30/24 55.7 1425 29.3 0342 0.00 54.8 207.0 3.0 18.6 1908 NNE | 14 99 39 - 0.0 13.0
1/29/24 59.4 1314 28.2 0649 0.00 54.0 212.5 1.2 9.5 1410 NNW | 346 99 32 - 0.5 13.0
1/28/24 57.3 1324 31.0 2348 0.00 74.0 217.3 1.1 7.0 1252 WNW | 303 98 45 - 0.0 13.0
1/27/24 51.6 1438 31.2 0721 0.00 24.3 229.6 1.0 6.0 1436 WNW | 299 100 0 37.4 0.0 13.0
1/26/24 47.2 1227 25.6 0001 0.00 0.8 212.7 1.4 14.6 1304 NW | 314 98 48 34.4 13.5 13.0
1/25/24 41.3 1433 24.7 2343 0.00 - 236.2 4.0 25.2 0157 NNW | 346 98 54 - 20.3 13.0
Max 59.4 - 35.1 - 0.00 74.0 236.2 8.3 33.4 - - 100 77 37.4 23.5 13.0
Avg - - - - - - - 3.3 - - - - - 29.9 - -
Min 31.1 - 11.4 - 0.00 0.7 90.3 0.9 5.6 - - 91 0 22.7 0.0 12.9
Calm: 4.1%
Calm: 2.2%